Regional Weather Roundup
Issued by NWS Upton, NY

Current Version | Previous Version | Text Only | Print | Product List | Glossary On
Versions: 1 2 3 4 5 6 7 8 9 10 11 12 13 14 15 16 17 18 19 20 21 22 23 24 25 26 27
000 ASUS41 KOKX 231805 RWROKX REGIONAL WEATHER ROUNDUP NATIONAL WEATHER SERVICE NEW YORK NY 200 PM EDT THU OCT 23 2014 NOTE: "FAIR" INDICATES FEW OR NO CLOUDS BELOW 12,000 FEET WITH NO SIGNIFICANT WEATHER AND/OR OBSTRUCTIONS TO VISIBILITY. NYZ071-072-176-178-NJZ106-104-231900- NEW YORK CITY METRO AREA CITY SKY/WX TMP DP RH WIND PRES REMARKS CENTRAL PARK LGT RAIN 51 48 89 VRB5 29.73S LAGUARDIA APRT LGT RAIN 52 46 82 N18G26 29.69F KENNEDY INTL LGT RAIN 53 46 77 N23G31 29.69S NEWARK/LIBERTY LGT RAIN 53 50 89 N14G23 29.71F BRNX BOT. GARD N/A 50 46 87 N3 29.72R TETERBORO LGT RAIN 52 47 83 N10 29.70F $$ NYZ177-179-078>081-231900- LONG ISLAND NEW YORK CITY SKY/WX TMP DP RH WIND PRES REMARKS FARMINGDALE CLOUDY 51 47 86 N15G24 29.66S FOG ISLIP LGT RAIN 52 49 89 NW17G26 29.62S FOG SHIRLEY LGT RAIN 53 48 83 N16G24 29.63S WESTHAMPTON CLOUDY 55 49 80 N14 29.61F MONTAUK POINT N/A 59 51 75 N16G23 29.56F $$ NYZ052-065-067-231900- HUDSON VALLEY CITY SKY/WX TMP DP RH WIND PRES REMARKS WHITE PLAINS LGT RAIN 49 45 86 N23G31 29.67F NEWBURGH LGT RAIN 50 48 93 NE12G23 29.75F FOG MONTGOMERY LGT RAIN 51 48 89 N9 29.74S POUGHKEEPSIE CLOUDY 49 45 86 N16G24 29.75F ALBANY LGT RAIN 48 44 86 N14 29.83R $$ NJZ001-105-106-008-010-013-015-019>022-104-231900- NEW JERSEY CITY SKY/WX TMP DP RH WIND PRES REMARKS NEWARK/LIBERTY LGT RAIN 53 50 89 N14G23 29.71F TETERBORO LGT RAIN 52 47 83 N10 29.70F CALDWELL LGT RAIN 52 48 86 N6 29.73S MORRISTOWN CLOUDY 55 52 88 NW8G21 29.73F SOMERVILLE LGT RAIN 54 46 74 NW9G16 29.72F SUSSEX LGT RAIN 55 48 77 NW8 29.75R ANDOVER N/A 50 45 83 N8 29.75S TRENTON LGT RAIN 52 47 83 NW10G20 29.74S MILLVILLE CLOUDY 53 49 86 NW16 29.76F ATLANTIC CITY LGT RAIN 52 50 93 NW16 29.73F WRIGHTSTOWN LGT RAIN 53 49 89 NW14 29.71F TOMS RIVER CLOUDY 52 50 93 NW6 29.72S BELMAR CLOUDY 52 45 76 NW14G22 29.70S $$ PAZ047>061-062-071-231900- EASTERN PENNSYLVANIA CITY SKY/WX TMP DP RH WIND PRES REMARKS PHILADELPHIA CLOUDY 56 45 66 NW16G26 29.78S ALLENTOWN CLOUDY 52 42 69 NW17G23 29.80S SCRANTON LGT RAIN 48 44 86 N10G20 29.84F FOG $$ CTZ002-004>006-009-010-012-RIZ004-006-007-MAZ004-011-015-231900- SOUTHERN NEW ENGLAND IN CT CITY SKY/WX TMP DP RH WIND PRES REMARKS BRADLEY INTL DRIZZLE 53 46 77 N20G26 29.66S HARTFORD CLOUDY 53 48 83 N15G23 29.66S DANBURY CLOUDY 48 42 80 N10 29.71F WTRBRY/OXFORD CLOUDY 48 43 81 N12G17 29.68S FOG BRIDGEPORT LGT RAIN 51 47 86 NW15 29.64F MERIDEN CLOUDY 54 47 77 N14G28 29.64F NEW HAVEN CLOUDY 55 47 74 N17G32 29.62F CHESTER CLOUDY 54 50 87 N12G21 29.61F FOG GROTON N/A 57 50 77 MISG 29.56F WILLIMANTIC CLOUDY 55 48 77 N13 29.62F IN RI CITY SKY/WX TMP DP RH WIND PRES REMARKS PROVIDENCE CLOUDY 56 52 86 N21G28 29.57F BLOCK ISLAND CLOUDY 57 50 77 N18G25 29.53F WESTERLY CLOUDY 58 50 75 N16G23 29.56F IN MA CITY SKY/WX TMP DP RH WIND PRES REMARKS BOSTON LGT RAIN 53 53 100 N30G40 29.58F FOG WORCESTER LGT RAIN 49 48 97 N20G28 29.64S VSB 3/4 WESTFIELD CLOUDY 52 47 83 N15G24 29.67S PROVINCETOWN CLOUDY 59 5 11 NE13 29.53F NANTUCKET CLOUDY 62 57 83 N17 29.46F $$ ANZ330-335-338-340-345-350-353-355-231900- COASTAL MARINE OBSERVATIONS STATION/POSITION TIME SKY/WX TEMP WIND PRES VSBY WAVE AIR SEA DIR/SP/G HT/PER (UTC) (F) (DEG/KT/KT) (MB) (MI) (FT/S) NY HARB ENTRANCE NOT AVBL 4S FIRE IS 1800 63 N/A 5/ 8 20S FIRE ISLAND 1800 55 64 340/ 23/ 27 1002.5 7/ 9 23SW MTP 1800 N/A 7/ 9 HUDSON CANYON 1800 58 67 330/ 21/ 29 1000.8 9/ 8 EXECUTION ROCKS NOT AVBL WESTERN LI SOUND NOT AVBL CENTRAL LI SOUND NOT AVBL EASTERN LI SOUND NOT AVBL ROBBINS REEF 1800 52 340/ 15/ 22 1004.6 $$ >>>>>>>>>>>>>>>>>>>>>>>>>>>> KEY <<<<<<<<<<<<<<<<<<<<<<<<<<< > < > SKY/WX - SKY CONDITION/PRESENT WEATHER < > TMP - TEMPERATURE IN FAHRENHEIT < > DP - DEWPOINT IN FAHRENHEIT < > RH - RELATIVE HUMIDITY IN PERCENT < > WIND - DIRECTION AND SPEED IN MPH < > PRES - MEAN SEA LEVEL PRESSURE IN INCHES OF HG < > WCI - WIND CHILL INDEX < > VSB - VISIBILITY IN MILES < > HX - HEAT INDEX < > TC - TEMPERATURE IN CELSIUS < > VRB - VARIABLE WIND DIRECTION < > < >>>>>>>>>>>>>>>>>>>>>>>>>>>> KEY <<<<<<<<<<<<<<<<<<<<<<<<<<<

USA.gov is the U.S. government's official web portal to all federal, state and local government web resources and services.